Pensacola NAS, FL

10:47 AM CDT on April 27, 2017 (GMT -0500)
Pensacola Naval Air Station

Weather History for KNPA - October, 2013

Change the Weather History Date:

Thursday, October 31, 2013

  Actual Average Record
Temperature  
Mean Temperature 76 °F -  
Max Temperature 82 °F 74 °F 87 °F (2016)
Min Temperature 73 °F 55 °F 43 °F (2011)
Cooling Degree Days 12    
Growing Degree Days 26 (Base 50)    
Moisture  
Dew Point 70 °F    
Average Humidity 82    
Maximum Humidity 94    
Minimum Humidity 74    
Precipitation  
Precipitation 0.00 in - - ()
Sea Level Pressure  
Sea Level Pressure 29.97 in    
Wind  
Wind Speed 13 mph (South)    
Max Wind Speed 16 mph    
Max Gust Speed -    
Visibility 10 miles    
Events Rain    
Averages and records for this station are not official NWS values.
T = Trace of Precipitation, MM = Missing Value Source: NWS Daily Summary

Daily Weather History Graph

Daily Weather History Graph

Search for Another Location

Airport or City:

Trip Planner

Search our weather history database for the weather conditions in past years. The results will help you decide how hot, cold, wet, or windy it might be!

Date:

Astronomy

Oct. 31, 2013 Rise Set
Actual Time 7:03 AM CDT 6:02 PM CDT
Civil Twilight 6:38 AM CDT 6:27 PM CDT
Nautical Twilight 6:09 AM CDT 6:55 PM CDT
Astronomical Twilight 5:41 AM CDT 7:23 PM CDT
Moon 4:04 AM CDT (10/31) 4:10 PM CDT (10/31)
Length of Visible Light 11h 48m
Length of Day
10h 59m
Waning Crescent, 10% of the Moon is Illuminated
Oct 31
Waning Crescent
Nov 3
New
Nov 9
First Quarter
Nov 17
Full
Nov 25
Last Quarter

Hourly Weather History & Observations

Time (CDT) Temp. Heat Index Dew Point Humidity Pressure Visibility Wind Dir Wind Speed Gust Speed Precip Events Conditions
12:56 AM 73.9 °F - 68.0 °F 82% 30.08 in 10.0 mi SE 10.4 mph - N/A   Clear
1:56 AM 75.0 °F - 68.0 °F 79% 30.08 in 10.0 mi SSE 13.8 mph - N/A   Mostly Cloudy
2:56 AM 73.9 °F - 68.0 °F 82% 30.06 in 10.0 mi SSE 15.0 mph - N/A   Partly Cloudy
3:56 AM 73.9 °F - 68.0 °F 82% 30.04 in 10.0 mi SSE 12.7 mph - N/A   Partly Cloudy
4:56 AM 73.9 °F - 68.0 °F 82% 30.03 in 10.0 mi SSE 13.8 mph - N/A   Clear
5:56 AM 73.9 °F - 69.1 °F 85% 30.03 in 10.0 mi SSE 13.8 mph - N/A   Partly Cloudy
6:04 AM 73.4 °F - 69.8 °F 88% 30.03 in 10.0 mi SSE 11.5 mph - N/A   Mostly Cloudy
6:56 AM 75.0 °F - 68.0 °F 79% 30.02 in 10.0 mi South 15.0 mph - N/A   Mostly Cloudy
7:56 AM 75.9 °F - 69.1 °F 79% 30.02 in 10.0 mi South 13.8 mph - N/A   Mostly Cloudy
8:56 AM 78.1 °F - 69.1 °F 74% 30.02 in 10.0 mi South 16.1 mph - N/A   Mostly Cloudy
9:56 AM 78.1 °F - 70.0 °F 76% 30.03 in 10.0 mi South 15.0 mph - N/A   Overcast
10:56 AM 80.1 °F 83.6 °F 71.1 °F 74% 30.03 in 10.0 mi South 15.0 mph - N/A   Overcast
11:56 AM 79.0 °F - 71.1 °F 77% 30.00 in 10.0 mi South 13.8 mph - N/A   Overcast
12:56 PM 80.1 °F 83.6 °F 71.1 °F 74% 29.98 in 10.0 mi South 15.0 mph - N/A   Overcast
1:56 PM 80.1 °F 83.6 °F 71.1 °F 74% 29.95 in 10.0 mi South 13.8 mph - N/A   Overcast
2:56 PM 79.0 °F - 71.1 °F 77% 29.93 in 10.0 mi South 13.8 mph - N/A   Overcast
3:56 PM 79.0 °F - 72.0 °F 79% 29.91 in 10.0 mi South 12.7 mph - N/A   Overcast
4:56 PM 78.1 °F - 70.0 °F 76% 29.91 in 10.0 mi SSW 12.7 mph - N/A   Overcast
5:56 PM 75.9 °F - 70.0 °F 82% 29.90 in 10.0 mi South 10.4 mph - N/A   Mostly Cloudy
6:56 PM 75.9 °F - 71.1 °F 85% 29.91 in 10.0 mi SSW 11.5 mph - N/A   Overcast
7:56 PM 75.9 °F - 70.0 °F 82% 29.91 in 10.0 mi SSW 11.5 mph - N/A   Overcast
8:56 PM 75.9 °F - 71.1 °F 85% 29.93 in 10.0 mi SSW 10.4 mph - N/A   Overcast
9:56 PM 75.9 °F - 72.0 °F 87% 29.92 in 10.0 mi South 12.7 mph - 0.00 in Rain Light Rain
10:56 PM 75.9 °F - 73.0 °F 91% 29.90 in 10.0 mi SSW 11.5 mph - 0.00 in   Overcast
11:20 PM 75.2 °F - 73.4 °F 94% 29.90 in 10.0 mi South 11.5 mph - N/A   Mostly Cloudy
11:29 PM 75.2 °F - 73.4 °F 94% 29.90 in 10.0 mi SSW 10.4 mph - N/A   Scattered Clouds
11:56 PM 75.9 °F - 73.0 °F 91% 29.90 in 10.0 mi SSW 10.4 mph - N/A   Clear